Home   Weather   Idar-Oberstein   Past weeks

Flag for Germany Past Weather in Idar-Oberstein, Rhineland-Palatinate, Germany — Yesterday and Last 2 Weeks

46 °F


Feels Like: 43 °F
Forecast: 39 / 54 °F
Wind: 7 mph from Southwest

Location: Hahn

Current Time: Oct 28, 2016 at 12:38:34 AM

Latest Report: Oct 27, 2016 at 11:50 PM

Visibility: 10 mi

Pressure: 30.51 "Hg

Humidity: 100%

Dew Point: 46 °F

Location of Idar-ObersteinLocation

Past Weather in Idar-Oberstein — Graph


Idar-Oberstein Temperature Yesterday

Maximum temperature yesterday: 52 °F (at 1:20 PM)
Minimum temperature yesterday: 37 °F (at 3:20 AM)
Average temperature yesterday: 45 °F

High & Low Weather Summary for the Past Weeks

High59 °F (Oct 16, 2:50 PM)100% (Oct 13, 4:20 AM)30.54 "Hg (Oct 13, 4:20 AM)
Low36 °F (Oct 16, 6:50 AM)71% (Oct 13, 2:20 PM)29.65 "Hg (Oct 14, 7:20 PM)
Average45 °F96%30.04 "Hg
* Reported Oct 12 11:20 PM — Oct 27 11:20 PM, Idar-Oberstein, Weather by CustomWeather, © 2016

Note: Actual official high and low records may vary slightly from our data, if they occured in-between our weather recording intervals... More about our weather records


Idar-Oberstein Weather History for the Previous 24 Hours

Scroll right to see more
Time TempWeatherWind HumidityBarometerVisibility
11:20 PM
Thu, Oct 27
46 °FPassing clouds.7 mph100%30.51 "HgN/A
10:50 PM46 °FPassing clouds.7 mph100%30.51 "HgN/A
10:20 PM46 °FPassing clouds.5 mph93%30.51 "HgN/A
9:50 PM46 °FPassing clouds.5 mph93%30.51 "HgN/A
9:20 PM48 °FPassing clouds.5 mph87%30.51 "HgN/A
8:50 PM48 °FPassing clouds.7 mph94%30.51 "HgN/A
8:20 PM48 °FPassing clouds.6 mph94%30.51 "HgN/A
7:50 PM48 °FPassing clouds.5 mph94%30.51 "HgN/A
7:20 PM48 °FPassing clouds.6 mph94%30.51 "HgN/A
6:50 PM46 °FClear.5 mph100%30.51 "Hg10 mi
6:20 PM48 °FClear.6 mph94%30.51 "Hg10 mi
5:50 PM50 °FSunny.7 mph88%30.51 "Hg10 mi
5:20 PM50 °FSunny.6 mph88%30.51 "Hg10 mi
4:50 PM50 °FSunny.8 mph82%30.51 "Hg10 mi
4:20 PM52 °FSunny.8 mph77%30.51 "Hg10 mi
3:50 PM50 °FPassing clouds.8 mph82%30.51 "HgN/A
3:20 PM52 °FPassing clouds.10 mph77%30.51 "HgN/A
2:50 PM50 °FPassing clouds.10 mph82%30.51 "HgN/A
2:20 PM50 °FPassing clouds.12 mph82%30.51 "HgN/A
1:50 PM52 °FPassing clouds.8 mph82%30.51 "HgN/A
1:20 PM52 °FPassing clouds.9 mph82%30.51 "HgN/A
12:50 PM50 °FScattered clouds.8 mph82%30.51 "HgN/A
12:20 PM50 °FPartly sunny.8 mph82%30.51 "HgN/A
11:50 AM50 °FPartly sunny.8 mph82%30.54 "HgN/A
11:20 AM48 °FPartly sunny.6 mph94%30.54 "HgN/A
10:50 AM46 °FPartly sunny.3 mph100%30.51 "Hg5 mi
10:20 AM45 °FPartly sunny.5 mph100%30.51 "Hg4 mi
9:50 AM43 °FFog.6 mph100%30.51 "Hg2 mi
9:20 AM43 °FFog.5 mph100%30.51 "Hg1 mi
8:50 AM41 °FFog.3 mph100%30.51 "Hg1 mi
8:20 AM39 °FFog.5 mph100%30.48 "Hg1 mi
7:50 AM39 °FFog.2 mph100%30.48 "Hg1 mi
7:20 AM39 °FFog.2 mph100%30.48 "Hg2 mi
6:50 AM41 °FFog.5 mph100%30.48 "Hg2 mi
6:20 AM43 °FFog.2 mph100%30.45 "Hg2 mi
5:50 AM41 °FFog.2 mph100%30.45 "Hg2 mi
5:20 AM41 °FFog.3 mph100%30.45 "Hg2 mi
4:50 AM39 °FFog.2 mph100%30.45 "Hg2 mi
4:20 AM39 °FFog.3 mph100%30.45 "Hg2 mi
3:50 AM41 °FClear.2 mph100%30.42 "Hg4 mi
3:20 AM37 °FPassing clouds.2 mph100%30.42 "Hg4 mi
2:50 AM43 °FPassing clouds.3 mph100%30.45 "Hg4 mi
2:20 AM43 °FPassing clouds.3 mph100%30.45 "Hg4 mi
1:50 AM41 °FPassing clouds.2 mph100%30.45 "Hg4 mi
1:20 AM39 °FPassing clouds.5 mph100%30.42 "Hg4 mi
12:50 AM41 °FPassing clouds.1 mph100%30.45 "Hg4 mi
12:20 AM41 °FClear.2 mph100%30.45 "Hg5 mi
Weather by CustomWeather, © 2016

See weather overviewHow to use our weather pages